User: anonymous   Login
Location: Igon
(43.1667°N, 0.2333°W)
Time: 09:10:24
(UTC+00:00)
Language:

SMAP - Orbit

View from above orbital plane
View from above orbital plane
View from above satellite
View from above satellite

Ground track
Ground track

The orbit data is extracted from the following two-line orbital elements,

1 40376U 15003A   21065.95089959  .00000072  00000-0  22983-4 0  9994
2 40376  98.1258  74.6138 0000750  93.5856 266.5432 14.63396412325616
Epoch (UTC): 06 March 2021 22:49:17
Eccentricity: 0.0000750
inclination: 98.1258°
perigee height: 682 km
apogee height: 683 km
right ascension of ascending node: 74.6138°
argument of perigee: 93.5856°
revolutions per day: 14.63396412
mean anomaly at epoch: 266.5432°
orbit number at epoch: 32561

The dashed part of the orbit path shows where the satellite is in the earth's shadow,  

DLR